TimeNDT,TemperatureF,Dew PointF,Humidity,Sea Level PressureIn,VisibilityMPH,Wind Direction,Wind SpeedMPH,Gust SpeedMPH,PrecipitationIn,Events,Conditions,WindDirDegrees,DateUTC
12:30 AM,31.3,22.1,69,-9999,-9999.0,South,8.1,18.4,N/A,,Unknown,170,2013-03-23 03:00:00
1:30 AM,30.9,21.2,67,-9999,-9999.0,South,8.1,-,N/A,,Unknown,180,2013-03-23 04:00:00
2:30 AM,30.6,21.2,68,-9999,-9999.0,SSE,5.8,-,N/A,,Unknown,160,2013-03-23 05:00:00
3:30 AM,30,21,58,,,SE,5.8,,,,,130,2013-03-23 06:00:00
3:30 AM,29.8,20.8,69,-9999,-9999.0,SE,5.8,-,N/A,,Unknown,130,2013-03-23 06:00:00
4:30 AM,29.7,20.8,70,-9999,-9999.0,SE,4.6,-,N/A,,Unknown,130,2013-03-23 07:00:00
5:30 AM,28.2,20.5,73,-9999,-9999.0,South,3.5,-,N/A,,Unknown,170,2013-03-23 08:00:00
6:30 AM,27.3,20.8,77,-9999,-9999.0,ESE,3.5,-,N/A,,Unknown,120,2013-03-23 09:00:00
7:30 AM,25.5,20.5,81,-9999,-9999.0,SSE,3.5,-,N/A,,Unknown,150,2013-03-23 10:00:00
8:30 AM,26.6,21.7,82,-9999,-9999.0,East,2.3,-,N/A,,Unknown,80,2013-03-23 11:00:00
9:30 AM,32,24,61,,,SSW,2.3,,,,,200,2013-03-23 12:00:00
9:30 AM,31.8,23.7,72,-9999,-9999.0,SSW,2.3,-,N/A,,Unknown,200,2013-03-23 12:00:00
10:30 AM,33.1,22.3,65,-9999,-9999.0,SSE,3.5,-,N/A,,Unknown,160,2013-03-23 13:00:00
11:30 AM,37.6,21.6,52,-9999,-9999.0,South,2.3,-,N/A,,Unknown,180,2013-03-23 14:00:00
12:30 PM,37.9,20.8,50,-9999,-9999.0,SW,4.6,-,N/A,,Unknown,220,2013-03-23 15:00:00
1:30 PM,39.4,20.5,47,-9999,-9999.0,West,4.6,-,N/A,,Unknown,270,2013-03-23 16:00:00
2:30 PM,39.9,21.6,48,-9999,-9999.0,West,9.2,-,N/A,,Unknown,260,2013-03-23 17:00:00
3:30 PM,40,21,33,,,West,8.1,,,,,260,2013-03-23 18:00:00
3:30 PM,39.7,20.8,47,-9999,-9999.0,West,8.1,-,N/A,,Unknown,260,2013-03-23 18:00:00
4:30 PM,37.0,22.3,55,-9999,-9999.0,West,8.1,-,N/A,,Unknown,270,2013-03-23 19:00:00
5:30 PM,34.0,21.9,61,-9999,-9999.0,WNW,5.8,-,N/A,,Unknown,290,2013-03-23 20:00:00
6:30 PM,32.0,24.4,74,-9999,-9999.0,West,4.6,-,N/A,,Unknown,280,2013-03-23 21:00:00
7:30 PM,30.6,26.1,83,-9999,-9999.0,NNW,3.5,-,N/A,,Unknown,330,2013-03-23 22:00:00
8:30 PM,29.1,25.7,87,-9999,-9999.0,NNW,1.2,-,N/A,,Unknown,330,2013-03-23 23:00:00
9:30 PM,28,25,84,,,SSW,3.5,,,,,200,2013-03-24 00:00:00
9:30 PM,27.7,25.2,90,-9999,-9999.0,SSW,3.5,-,N/A,,Unknown,200,2013-03-24 00:00:00
10:30 PM,26.2,24.1,92,-9999,-9999.0,ENE,2.3,-,N/A,,Unknown,60,2013-03-24 01:00:00
11:30 PM,24.8,23.4,94,-9999,-9999.0,NE,2.3,-,N/A,,Unknown,40,2013-03-24 02:00:00